Location: Ferchesar
(52.6477°N, 12.4298°E)
Time: 09:43:37
(UTC+01:00)

Explorer 7 - Pass Details

Date: 08 December 2021
Orbit: 483 x 674 km, 50.3° (Epoch: 24 January)

Event Time Altitude Azimuth Distance (km) Brightness Sun altitude
Rises 06:31:05 0° 256° (WSW) 2,822 - -13.7°
Reaches altitude 10° 06:33:26 10° 253° (WSW) 1,888 - -13.4°
Exits shadow 06:34:05 14° 251° (WSW) 1,637 8.8 -13.3°
Maximum altitude 06:37:40 61° 174° (S) 630 7.2 -12.8°
Drops below altitude 10° 06:41:39 10° 93° (E) 1,775 10.7 -12.2°
Sets 06:43:49 0° 90° (E) 2,637 11.7 -11.9°
